Date,TemperatureHighF,TemperatureAvgF,TemperatureLowF,DewpointHighF,DewpointAvgF,DewpointLowF,HumidityHigh,HumidityAvg,HumidityLow,PressureMaxIn,PressureMinIn,WindSpeedMaxMPH,WindSpeedAvgMPH,GustSpeedMaxMPH,PrecipitationSumIn
2013-1-1,9,1,-5,2,-4,-9,84,80,68,30.62,30.18,5,0,5,0.00
2013-1-2,11,3,-7,3,-3,-12,85,77,61,30.69,30.51,3,0,8,0.00
2013-1-3,18,-2,-14,-1,-10,-19,84,72,35,30.91,30.70,3,0,7,0.00
2013-1-4,31,8,-5,13,0,-9,88,73,37,30.90,30.54,5,1,8,0.00
2013-1-5,29,7,-4,5,-2,-8,89,69,30,30.82,30.57,3,0,10,0.00
2013-1-6,39,14,-3,9,0,-9,80,61,13,30.80,30.36,3,1,4,0.00
2013-1-7,34,15,3,8,0,-8,77,57,16,30.36,30.16,3,0,6,0.00
2013-1-8,30,16,4,15,6,-5,87,66,40,30.62,30.21,7,1,11,0.00
2013-1-9,41,17,3,15,5,-1,90,65,24,30.74,30.38,3,1,7,0.00
2013-1-10,40,22,8,15,6,-6,74,55,14,30.36,29.60,4,1,6,0.00
2013-1-11,20,11,-1,15,2,-8,86,70,46,29.90,29.29,9,1,13,0.00
2013-1-12,8,-4,-16,-8,-13,-21,79,68,37,30.35,29.90,4,0,5,0.00
2013-1-13,4,-8,-17,-9,-16,-23,78,67,38,30.52,30.36,5,0,7,0.00
2013-1-14,7,-10,-21,-7,-17,-26,80,71,44,30.70,30.47,4,0,9,0.00
2013-1-15,4,-6,-22,0,-11,-28,83,77,68,31.04,30.71,5,0,7,0.00
2013-1-16,26,10,-1,16,5,-5,87,80,63,31.03,30.73,4,0,10,0.00
2013-1-17,36,12,0,15,4,-3,91,72,28,30.89,30.71,2,0,9,0.00
2013-1-18,33,16,2,8,2,-1,88,58,24,30.72,30.51,3,1,15,0.00
2013-1-19,34,18,8,6,1,-1,71,52,25,30.60,30.48,4,1,9,0.00
2013-1-20,33,19,8,5,0,-3,70,46,22,30.53,30.39,5,1,9,0.00
2013-1-21,33,20,6,8,2,-3,75,49,30,30.52,30.38,6,1,13,0.00
2013-1-22,40,23,10,4,-3,-15,55,36,9,30.52,30.37,7,1,14,0.00
2013-1-23,48,23,8,13,3,-10,61,46,9,30.57,30.43,2,1,7,0.01
2013-1-24,41,30,18,25,14,-3,86,55,25,30.42,30.07,5,1,18,0.01
2013-1-25,36,31,26,28,26,23,91,81,68,30.21,30.05,4,0,7,0.02
2013-1-26,41,29,19,29,23,16,92,81,48,30.08,29.70,1,0,5,0.01
2013-1-27,38,28,16,28,19,9,93,71,42,29.78,29.68,5,0,8,0.00
2013-1-28,33,22,8,21,12,3,88,69,39,29.73,29.54,5,1,10,0.00
2013-1-29,11,5,-1,4,-1,-5,85,78,54,30.22,29.69,5,1,10,0.00
2013-1-30,15,8,0,11,4,-4,85,81,74,30.38,30.22,8,1,12,0.00
2013-1-31,26,17,10,16,12,7,89,81,62,30.45,30.32,7,0,7,0.00
2013-2-1,25,19,10,15,13,6,90,77,61,30.45,30.26,0,0,0,0.00
2013-2-2,34,17,2,13,6,-2,87,68,31,30.62,30.45,1,0,2,0.00
2013-2-3,38,19,6,10,4,-3,88,59,19,30.56,30.21,6,1,11,0.00
2013-2-4,33,18,3,9,3,-2,83,56,28,30.28,30.16,8,1,13,0.00
2013-2-5,41,23,9,20,13,4,83,66,41,30.30,30.06,6,0,12,0.00
2013-2-6,33,22,11,22,15,8,89,78,48,30.16,29.94,3,0,7,0.00
2013-2-7,32,14,2,15,7,-1,89,75,30,30.32,30.16,3,0,5,0.00
2013-2-8,35,21,6,20,10,2,86,66,32,30.32,29.82,5,1,11,0.00
2013-2-9,24,18,9,20,13,5,89,82,67,29.81,29.46,3,0,10,0.00
2013-2-10,17,9,2,9,4,-3,86,79,62,30.17,29.69,0,0,0,0.00
2013-2-11,18,8,-2,9,2,-7,86,77,54,30.32,30.13,0,0,0,0.00
2013-2-12,18,2,-9,2,-5,-14,85,74,49,30.64,30.33,0,0,0,0.00
2013-2-13,25,14,0,13,9,-3,87,78,59,30.65,30.35,0,0,0,0.00
2013-2-14,24,15,10,16,10,7,88,83,69,30.37,30.23,0,0,0,0.00
2013-2-15,18,13,9,12,8,5,87,81,63,30.63,30.35,0,0,0,0.00
2013-2-16,32,18,6,14,9,2,84,69,44,30.62,30.31,12,1,12,0.00
2013-2-17,39,22,3,16,2,-7,88,51,18,30.31,29.77,6,1,12,0.00
2013-2-18,20,9,-7,9,1,-12,86,72,46,30.41,29.82,8,1,11,0.00
2013-2-19,36,14,-8,6,-4,-13,86,51,16,30.46,30.00,3,1,6,0.00
2013-2-20,31,21,12,18,9,2,88,63,34,29.99,29.51,3,0,7,0.00
2013-2-21,19,15,10,15,12,6,88,85,78,29.97,29.55,5,0,15,0.00
2013-2-22,18,9,1,10,4,-3,87,80,68,30.22,29.97,0,0,0,0.00
2013-2-23,32,16,-2,20,9,-6,88,77,53,30.21,29.81,0,0,0,0.00
2013-2-24,17,12,8,12,8,4,88,82,61,30.21,29.75,0,0,0,0.00
2013-2-25,23,10,0,10,4,-4,86,77,54,30.36,30.17,0,0,0,0.00
2013-2-26,14,8,2,8,4,-1,87,83,72,30.42,30.07,0,0,0,0.00
2013-2-27,20,6,-6,5,-1,-11,89,74,47,30.65,30.43,0,0,0,0.00
2013-2-28,22,8,-8,11,1,-13,87,74,46,30.74,30.64,0,0,0,0.00
2013-3-1,28,20,14,21,16,11,90,86,73,30.68,30.53,0,0,0,0.00
2013-3-2,39,27,19,22,20,15,91,75,48,30.60,30.20,6,0,7,0.12
2013-3-3,40,28,16,24,18,12,89,68,40,30.21,29.75,5,1,13,0.04
2013-3-4,32,18,-6,24,14,-10,91,85,60,30.29,29.65,0,0,1,0.00
2013-3-5,38,13,-10,17,2,-14,89,66,25,30.67,30.31,0,0,0,0.01
2013-3-6,45,25,7,16,8,3,88,55,21,30.51,30.06,7,0,9,0.00
2013-3-7,46,26,17,13,9,4,69,52,18,30.05,29.91,4,1,12,0.00
2013-3-8,42,29,17,24,16,9,89,61,33,29.98,29.58,5,1,10,0.01
2013-3-9,28,22,11,24,18,8,90,87,82,30.04,29.50,1,0,7,0.00
2013-3-10,25,14,6,15,9,3,88,78,59,30.44,30.05,0,0,0,0.00
2013-3-11,31,22,9,22,15,7,89,76,58,30.43,30.17,4,0,10,0.00
2013-3-12,35,26,21,22,20,18,91,77,55,30.34,30.19,0,0,0,0.02
2013-3-13,41,30,21,22,19,16,84,66,40,30.39,30.32,4,0,9,0.11
2013-3-14,48,32,20,22,16,8,83,57,20,30.44,30.29,5,1,10,0.20
2013-3-15,52,34,22,22,18,14,80,57,23,30.31,29.94,4,1,16,0.01
2013-3-16,40,30,23,28,24,20,93,80,48,29.95,29.71,2,0,8,0.00
2013-3-17,34,24,16,24,17,6,92,78,50,29.84,29.59,5,1,16,0.00
2013-3-18,26,19,13,17,10,4,85,69,45,30.11,29.85,4,1,14,0.00
2013-3-19,33,22,6,16,-1,-15,82,41,14,30.37,30.10,9,2,16,0.00
2013-3-20,42,23,2,25,10,-7,90,61,29,30.40,30.02,6,1,11,0.00
2013-3-21,34,22,14,25,18,10,93,86,63,30.01,29.57,2,0,4,0.01
2013-3-22,32,18,1,16,8,-2,87,69,31,29.91,29.76,0,0,0,0.00
2013-3-23,14,10,5,11,5,1,88,80,57,30.27,29.78,0,0,0,0.00
2013-3-24,10,3,-4,4,-2,-9,84,79,70,30.50,30.27,9,0,9,0.00
2013-3-25,22,6,-10,7,-3,-14,85,69,37,30.66,30.51,4,0,8,0.00
2013-3-26,42,21,-3,24,11,-7,92,68,36,30.62,30.18,4,1,10,0.02
2013-3-27,42,28,19,25,20,17,92,74,40,30.17,30.00,4,0,10,0.08
2013-3-28,46,29,15,24,18,12,85,66,29,30.19,30.11,5,0,12,0.01
2013-3-29,46,30,20,28,22,16,93,74,40,30.22,30.09,4,0,8,0.00
2013-3-30,45,32,22,28,24,19,93,76,35,30.20,30.04,9,1,14,0.08
2013-3-31,48,28,12,21,14,2,91,62,16,30.20,30.07,7,1,11,0.06
2013-4-1,46,33,21,28,20,14,91,61,34,30.12,29.84,8,0,8,0.00
2013-4-2,41,29,23,27,24,18,92,81,44,30.01,29.79,4,0,9,0.00
2013-4-3,38,28,19,27,22,16,93,79,51,30.26,30.00,5,0,9,0.25
2013-4-4,49,34,17,25,20,15,92,62,31,30.32,30.12,6,1,11,0.11
2013-4-5,52,37,24,29,21,16,92,58,24,30.10,29.72,5,0,8,0.00
2013-4-6,47,33,23,26,23,19,92,70,33,29.88,29.81,5,0,9,0.22
2013-4-7,40,31,24,29,23,18,89,74,42,29.85,29.71,6,1,9,0.04
2013-4-8,47,34,20,30,21,14,89,64,29,29.75,29.36,7,1,15,0.00
2013-4-9,32,22,10,25,14,4,89,73,56,29.86,29.35,7,1,15,0.00
2013-4-10,28,15,6,15,7,2,85,72,56,30.18,29.87,6,1,13,0.00
2013-4-11,35,25,13,26,19,7,91,79,61,30.14,29.91,4,1,13,0.01
2013-4-12,39,27,16,26,20,12,92,78,42,30.00,29.89,4,0,9,0.00
2013-4-13,46,31,13,29,16,10,91,59,28,30.00,29.44,4,1,12,0.01
2013-4-14,30,23,19,27,17,11,92,78,52,29.74,29.43,0,0,0,0.00
2013-4-15,30,26,21,25,22,17,92,85,75,29.78,29.58,0,0,0,0.00
2013-4-16,41,29,17,29,21,14,89,73,47,29.79,29.59,4,0,13,0.10
2013-4-17,27,20,8,21,16,5,87,84,76,29.98,29.54,5,1,14,0.00
2013-4-18,19,8,0,9,3,-4,85,78,59,30.59,30.00,0,0,0,0.00
2013-4-19,35,21,0,19,12,-4,86,69,47,30.59,30.17,11,1,16,0.14
2013-4-20,38,27,20,27,21,15,91,80,48,30.17,29.95,4,0,12,0.06
2013-4-21,43,30,23,25,22,16,93,74,37,30.14,30.00,5,0,10,0.15
2013-4-22,39,30,21,29,25,18,92,80,55,30.00,29.79,4,0,8,0.03
2013-4-23,22,17,2,17,12,-2,90,81,65,30.33,29.86,0,0,0,0.00
2013-4-24,35,18,-2,17,7,-6,88,68,36,30.52,30.34,0,0,0,0.00
2013-4-25,49,29,6,22,12,3,86,56,25,30.49,30.05,3,0,7,0.00
2013-4-26,49,33,16,23,14,5,81,52,18,30.28,30.11,5,0,13,0.01
2013-4-27,51,35,18,23,16,11,80,52,25,30.29,30.12,4,1,14,0.00
2013-4-28,56,39,22,26,20,15,78,52,22,30.16,29.89,5,1,10,0.00
2013-4-29,57,44,27,28,22,16,88,48,21,29.94,29.57,5,1,13,0.00
2013-4-30,55,47,34,31,22,17,84,39,25,29.57,29.39,6,1,15,0.00
2013-5-1,38,26,18,31,22,15,92,86,67,30.40,29.46,4,0,12,0.00
2013-5-2,29,20,12,16,12,9,90,73,46,30.67,30.41,0,0,0,0.00
2013-5-3,45,29,7,24,13,4,89,58,26,30.63,30.15,5,0,9,0.32
2013-5-4,46,35,23,30,22,15,88,62,37,30.16,29.92,7,1,11,0.04
2013-5-5,49,37,24,28,24,17,85,61,29,30.07,29.93,4,1,8,0.00
2013-5-6,50,35,26,34,28,22,93,78,40,29.96,29.82,4,0,10,0.07
2013-5-7,51,37,30,33,29,22,94,75,34,29.93,29.85,3,0,8,0.13
2013-5-8,40,33,27,35,29,25,94,87,67,29.99,29.86,2,0,6,0.00
2013-5-9,40,33,26,34,30,23,94,89,69,30.17,29.97,2,0,4,0.00
2013-5-10,47,33,20,31,25,18,94,76,38,30.37,30.17,5,0,17,0.00
2013-5-11,52,37,24,31,25,18,91,65,29,30.39,30.22,4,1,8,0.00
2013-5-12,55,41,28,36,28,23,95,64,29,30.28,30.12,5,1,13,0.00
2013-5-13,64,45,31,35,30,27,90,61,26,30.21,30.02,6,1,7,0.00
2013-5-14,65,45,31,36,31,25,92,64,23,30.04,29.85,4,1,9,0.00
2013-5-15,61,42,31,40,34,29,94,76,35,29.92,29.80,4,0,12,0.00
2013-5-16,61,44,30,38,30,26,96,64,29,29.89,29.75,5,1,12,0.00
2013-5-17,64,47,31,29,21,10,84,47,13,29.83,29.66,3,0,7,0.00
2013-5-18,56,39,29,32,25,16,92,63,23,29.80,29.68,6,1,12,0.00
2013-5-19,43,34,31,33,29,26,94,82,57,29.89,29.71,6,1,9,0.00
2013-5-20,44,35,30,35,30,27,92,83,57,29.99,29.84,5,1,11,0.00
2013-5-21,49,37,28,30,27,25,90,70,40,30.01,29.87,6,1,11,0.00
2013-5-22,62,43,27,35,26,17,91,58,18,29.92,29.75,8,1,9,0.00
2013-5-23,63,49,38,34,29,15,81,52,17,29.84,29.67,5,1,17,0.01
2013-5-24,65,49,30,35,22,6,82,45,10,29.83,29.69,5,1,8,0.00
2013-5-25,66,49,30,27,17,-4,75,38,6,29.86,29.74,4,1,11,0.00
2013-5-26,67,49,32,32,21,6,76,43,9,29.80,29.68,5,1,7,0.00
2013-5-27,63,46,31,27,20,11,73,43,14,29.76,29.61,5,1,8,0.00
2013-5-28,61,46,30,30,22,13,80,45,16,29.69,29.43,4,1,12,0.00
2013-5-29,49,37,29,35,29,25,92,74,43,29.68,29.40,4,1,11,0.11
2013-5-30,43,34,30,32,29,22,93,81,47,29.92,29.65,3,0,11,0.26
2013-5-31,49,38,29,30,22,13,93,58,25,30.04,29.87,5,1,14,0.15
2013-6-1,56,42,28,31,24,18,78,52,28,30.13,30.03,6,1,9,0.00
2013-6-2,68,49,27,28,21,13,88,44,13,30.07,29.73,5,0,9,0.00
2013-6-3,69,52,35,33,25,17,71,42,15,29.74,29.60,5,1,10,0.00
2013-6-4,67,49,30,39,29,23,88,53,21,29.84,29.71,7,1,15,0.02
2013-6-5,65,49,32,36,28,17,91,52,17,29.87,29.75,6,1,11,0.00
2013-6-6,65,48,29,37,28,22,84,52,21,29.93,29.84,6,1,13,0.00
2013-6-7,62,48,33,43,33,29,89,60,29,29.91,29.70,3,0,8,0.02
2013-6-8,66,52,40,35,32,24,77,49,23,29.75,29.64,8,1,15,0.00
2013-6-9,72,54,37,34,30,24,79,44,17,29.85,29.77,5,1,14,0.00
2013-6-10,78,60,39,36,29,21,72,39,13,29.80,29.62,5,1,8,0.00
2013-6-11,74,59,40,36,20,4,65,30,7,29.76,29.58,5,1,11,0.00
2013-6-12,78,59,39,31,23,13,60,30,9,29.82,29.73,7,1,9,0.00
2013-6-13,74,58,41,39,29,21,61,38,14,29.80,29.65,6,1,12,0.00
2013-6-14,74,58,41,34,23,5,69,33,7,29.70,29.57,4,1,9,0.00
2013-6-15,71,54,32,32,23,10,68,36,11,29.83,29.66,4,0,12,0.00
2013-6-16,64,48,36,41,34,27,86,59,28,29.97,29.80,9,1,9,0.04
2013-6-17,65,48,33,40,32,25,91,60,24,30.03,29.91,6,1,11,0.01
2013-6-18,72,56,43,37,30,18,77,42,14,29.94,29.60,4,1,7,0.00
2013-6-19,75,56,34,30,16,-9,66,29,4,29.63,29.50,8,1,13,0.00
2013-6-20,73,55,36,26,16,7,54,26,8,29.69,29.58,6,1,9,0.00
2013-6-21,74,56,37,29,18,5,52,28,8,29.69,29.58,6,1,10,0.00
2013-6-22,71,54,36,26,19,11,55,30,10,29.69,29.56,5,1,9,0.00
2013-6-23,71,51,31,33,23,15,70,40,12,29.77,29.64,5,1,12,0.00
2013-6-24,71,55,40,37,22,8,70,34,9,29.68,29.58,5,1,10,0.00
2013-6-25,71,55,39,33,27,20,59,36,20,29.84,29.61,4,1,10,0.00
2013-6-26,78,59,37,36,31,25,76,41,15,29.90,29.81,5,1,9,0.00
2013-6-27,79,61,40,38,30,25,72,37,14,29.97,29.89,5,1,9,0.00
2013-6-28,80,64,44,42,33,19,71,36,11,29.98,29.77,8,1,10,0.00
2013-6-29,74,56,45,48,41,34,87,59,24,29.88,29.72,5,1,8,0.10
2013-6-30,70,54,40,49,41,37,89,67,30,29.96,29.83,5,1,17,0.11
2013-7-1,71,53,35,43,37,31,96,61,23,30.03,29.92,5,1,12,0.00
2013-7-2,70,53,36,47,37,26,93,62,19,29.96,29.83,4,1,15,0.05
2013-7-3,69,52,35,42,36,29,95,61,23,29.89,29.74,6,1,19,0.00
2013-7-4,74,55,36,49,38,30,92,59,21,29.86,29.68,6,1,7,0.03
2013-7-5,67,56,45,50,43,39,83,63,43,29.70,29.56,5,1,9,0.02
2013-7-6,69,57,45,48,44,41,94,67,38,29.72,29.62,6,1,16,0.04
2013-7-7,72,57,43,50,43,36,92,63,28,29.80,29.67,4,1,11,0.08
2013-7-8,71,55,40,51,43,33,96,68,26,29.92,29.80,3,0,10,0.07
2013-7-9,75,58,41,45,39,33,85,54,21,29.98,29.88,4,1,10,0.00
2013-7-10,74,62,51,45,41,34,64,47,25,29.95,29.70,4,1,7,0.00
2013-7-11,79,61,42,47,40,29,81,52,18,29.75,29.56,5,1,7,0.00
2013-7-12,71,55,46,53,46,40,94,74,34,29.81,29.62,2,0,7,0.19
2013-7-13,70,56,45,52,48,44,96,78,43,29.89,29.78,5,0,8,0.06
2013-7-14,70,54,41,53,47,40,96,80,41,29.93,29.83,3,0,8,0.10
2013-7-15,69,54,44,53,47,42,93,79,46,29.92,29.73,4,1,7,0.18
2013-7-16,69,55,36,47,41,35,96,64,34,29.93,29.81,3,1,7,0.00
2013-7-17,72,54,39,56,46,37,93,76,40,29.95,29.82,3,0,7,0.06
2013-7-18,71,55,41,49,44,39,96,71,40,29.98,29.84,3,0,11,0.00
2013-7-19,70,57,47,47,45,40,90,67,39,29.95,29.76,6,1,8,0.00
2013-7-20,74,58,40,46,36,24,93,53,17,29.80,29.67,5,1,9,0.00
2013-7-21,76,60,40,45,31,20,81,41,13,29.70,29.63,7,1,16,0.00
2013-7-22,77,60,43,40,26,11,65,33,10,29.77,29.67,6,1,11,0.00
2013-7-23,77,60,41,33,22,14,54,28,11,29.85,29.75,4,1,9,0.00
2013-7-24,71,57,47,51,41,32,92,59,26,29.83,29.69,5,0,10,0.22
2013-7-25,70,52,41,50,44,39,94,76,35,30.02,29.77,6,0,12,0.05
2013-7-26,70,54,37,45,37,29,95,60,23,30.07,29.96,4,1,10,0.00
2013-7-27,72,53,39,50,41,35,94,70,26,29.95,29.67,2,0,7,0.17
2013-7-28,55,49,45,51,47,44,95,91,78,29.81,29.63,3,0,8,0.45
2013-7-29,59,48,44,50,44,42,96,86,69,30.02,29.79,4,0,8,0.09
2013-7-30,69,51,36,45,41,34,97,72,35,30.12,30.02,5,0,11,0.02
2013-7-31,70,54,38,46,39,36,96,62,29,30.16,29.96,3,0,7,0.00
2013-8-1,68,53,40,47,41,36,88,67,36,29.96,29.79,2,0,4,0.01
2013-8-2,71,56,42,46,41,36,92,62,32,29.86,29.79,6,0,12,0.00
2013-8-3,73,56,44,48,42,37,86,63,28,29.92,29.76,4,1,11,0.01
2013-8-4,74,54,39,48,42,34,94,69,24,29.96,29.85,5,0,8,0.17
2013-8-5,66,51,39,49,44,38,97,78,43,29.93,29.85,4,1,7,0.03
2013-8-6,69,52,39,47,41,36,96,71,31,29.92,29.82,6,1,10,0.01
2013-8-7,57,47,39,47,42,37,93,82,55,29.93,29.85,2,0,5,0.29
2013-8-8,58,46,36,44,38,34,95,75,47,30.02,29.91,5,0,11,0.00
2013-8-9,58,45,38,47,40,35,95,82,45,30.13,29.96,3,0,6,0.38
2013-8-10,68,50,33,47,35,27,97,64,22,30.18,30.02,4,0,10,0.01
2013-8-11,69,50,36,48,38,29,91,68,23,30.04,29.88,5,1,8,0.04
2013-8-12,64,49,36,46,38,33,92,70,34,30.02,29.93,3,0,7,0.12
2013-8-13,61,47,35,46,39,33,95,77,40,30.14,29.97,4,0,13,0.27
2013-8-14,65,48,33,47,34,29,97,66,26,30.12,30.03,4,0,11,0.00
2013-8-15,70,52,34,42,31,23,87,51,18,30.08,29.96,6,1,11,0.00
2013-8-16,71,55,36,38,29,22,77,43,17,30.03,29.92,2,0,8,0.00
2013-8-17,71,58,41,39,31,21,71,42,15,29.97,29.82,4,1,7,0.00
2013-8-18,70,52,41,48,39,33,94,65,27,30.00,29.81,4,1,9,0.17
2013-8-19,74,55,37,49,39,30,97,64,20,30.05,29.89,5,1,11,0.01
2013-8-20,73,56,39,44,38,31,88,56,23,29.92,29.77,3,0,6,0.00
2013-8-21,71,56,41,45,42,37,87,62,31,29.91,29.80,6,1,10,0.00
2013-8-22,67,52,44,53,46,39,95,79,43,29.96,29.84,3,0,6,0.78
2013-8-23,68,54,41,52,45,39,97,76,40,29.95,29.74,3,0,4,0.13
2013-8-24,64,51,38,49,43,37,97,79,46,29.96,29.83,6,0,7,0.15
2013-8-25,62,52,41,54,47,40,97,86,56,29.99,29.90,3,0,5,0.20
2013-8-26,67,54,44,56,48,42,96,84,51,30.00,29.89,4,0,9,0.39
2013-8-27,73,54,40,57,47,38,97,79,29,30.00,29.82,3,0,7,0.18
2013-8-28,74,55,41,51,45,34,97,73,24,29.97,29.82,3,0,10,0.16
2013-8-29,73,54,40,52,45,39,97,77,31,30.05,29.91,2,0,7,0.38
2013-8-30,66,53,46,54,49,45,96,86,52,30.05,29.91,2,0,5,0.42
2013-8-31,68,52,43,53,47,42,97,85,45,29.97,29.88,4,0,6,0.04
2013-9-1,68,54,45,51,46,44,94,79,48,29.92,29.82,3,0,7,0.06
2013-9-2,71,54,46,51,47,40,96,79,35,29.92,29.80,2,0,7,0.04
2013-9-3,71,56,42,50,45,41,96,71,35,29.95,29.82,4,0,6,0.04
2013-9-4,68,55,45,53,46,41,96,76,44,30.00,29.91,3,0,8,0.01
2013-9-5,74,57,45,51,44,31,89,66,25,30.00,29.88,5,0,5,0.01
2013-9-6,72,54,41,51,43,38,94,71,31,30.00,29.83,2,0,8,0.07
2013-9-7,72,53,39,52,43,34,96,74,26,29.95,29.80,3,0,7,0.06
2013-9-8,67,53,40,47,43,38,95,71,37,29.88,29.69,5,0,7,0.01
2013-9-9,65,52,41,48,44,39,94,78,41,29.75,29.60,3,0,9,0.26
2013-9-10,55,49,45,49,46,44,97,89,75,29.91,29.72,3,0,7,0.37
2013-9-11,58,51,46,50,46,44,94,85,66,29.93,29.84,4,0,7,0.25
2013-9-12,59,50,45,51,47,44,97,89,67,29.98,29.86,3,0,6,0.59
2013-9-13,58,49,42,49,45,41,96,87,63,29.87,29.68,2,0,6,0.19
2013-9-14,56,47,40,46,42,38,96,85,57,29.83,29.71,3,0,6,0.10
2013-9-15,55,44,40,45,41,39,96,89,64,30.05,29.82,5,0,6,0.30
2013-9-16,57,45,34,47,40,33,97,85,56,30.08,29.97,2,0,6,0.05
2013-9-17,65,48,33,44,36,31,97,71,29,30.05,29.73,5,0,6,0.01
2013-9-18,64,46,39,45,39,34,96,78,32,29.83,29.65,8,1,12,0.28
2013-9-19,58,42,29,42,32,17,97,73,23,30.04,29.79,4,0,9,0.12
2013-9-20,62,42,26,31,25,13,94,61,15,30.11,29.99,4,1,8,0.00
2013-9-21,64,45,31,38,32,27,91,65,30,30.05,29.77,3,0,10,0.00
2013-9-22,54,41,34,44,38,32,94,86,61,29.78,29.48,4,0,6,0.36
2013-9-23,42,34,30,33,30,28,96,86,63,30.18,29.48,3,1,11,0.16
2013-9-24,60,38,25,31,23,10,95,64,15,30.29,29.94,7,0,9,0.07
2013-9-25,63,45,28,30,23,10,82,49,13,29.94,29.50,6,1,14,0.00
2013-9-26,63,51,40,29,20,14,61,30,18,29.50,29.37,7,2,14,0.00
2013-9-27,43,38,26,40,28,19,93,70,41,29.89,29.38,9,1,9,0.09
2013-9-28,49,34,23,24,18,13,80,57,27,30.25,29.89,5,1,14,0.01
2013-9-29,57,40,25,24,19,13,80,50,18,30.23,29.99,5,1,9,0.00
2013-9-30,65,44,30,33,26,21,81,55,26,30.04,29.78,3,1,8,0.00
2013-10-1,64,44,28,31,26,15,86,56,15,29.98,29.80,6,1,10,0.00
2013-10-2,62,43,28,28,22,15,85,52,19,29.93,29.75,3,1,7,0.00
2013-10-3,59,43,29,29,21,13,78,47,19,29.77,29.49,4,1,21,0.00
2013-10-4,31,24,17,25,20,13,91,82,57,30.26,29.49,5,1,10,0.00
2013-10-5,33,23,17,20,16,14,90,77,51,30.59,30.26,6,1,17,0.01
2013-10-6,48,29,15,30,21,12,92,74,40,30.62,30.45,6,1,9,0.19
2013-10-7,62,37,22,29,21,12,92,63,15,30.45,30.04,2,0,8,0.02
2013-10-8,62,41,29,27,21,8,79,53,13,30.02,29.69,4,0,8,0.00
2013-10-9,55,40,27,28,23,18,87,56,25,29.83,29.71,8,1,11,0.00
2013-10-10,43,36,28,35,28,22,92,72,53,29.78,29.38,6,1,16,0.02
2013-10-11,37,32,28,27,24,21,83,73,62,30.05,29.54,7,1,12,0.04
2013-10-12,48,31,19,23,18,11,89,64,23,30.17,30.05,4,1,8,0.03
2013-10-13,52,38,25,33,24,19,92,62,30,30.14,29.81,4,1,12,0.03
2013-10-14,36,30,26,31,26,24,94,86,63,30.10,29.68,4,0,13,0.01
2013-10-15,30,26,23,26,23,21,92,88,80,30.17,30.09,1,0,3,0.00
2013-10-16,33,24,16,23,19,13,92,81,63,30.25,30.11,0,0,0,0.00
2013-10-17,38,24,11,21,15,8,90,71,43,30.27,30.09,0,0,2,0.00
2013-10-18,27,22,15,22,17,12,91,82,65,30.35,30.03,0,0,4,0.00
2013-10-19,39,26,13,21,17,10,89,70,44,30.40,30.18,0,0,0,0.00
2013-10-20,40,29,21,26,21,17,89,73,47,30.17,29.93,0,0,0,0.00
2013-10-21,39,27,16,22,19,13,91,73,40,30.37,30.09,7,0,10,0.00
2013-10-22,48,29,16,25,20,14,93,72,34,30.45,30.29,3,0,8,0.03
2013-10-23,52,32,21,26,19,12,90,66,21,30.33,30.18,6,0,8,0.07
2013-10-24,53,36,19,26,19,13,83,57,21,30.29,30.16,6,1,9,0.01
2013-10-25,49,34,23,27,21,19,84,64,31,30.27,30.12,4,0,9,0.00
2013-10-26,48,32,22,25,21,19,88,67,33,30.32,30.22,4,0,7,0.00
2013-10-27,49,32,21,25,19,14,88,64,26,30.26,29.93,3,0,7,0.00
2013-10-28,46,34,25,26,20,14,82,58,31,29.95,29.74,4,1,8,0.00
2013-10-29,42,35,30,28,16,8,89,49,27,29.80,29.62,7,1,12,0.00
2013-10-30,33,24,18,25,18,13,92,79,46,29.94,29.65,3,0,9,0.00
2013-10-31,27,22,19,20,17,16,90,81,69,30.13,29.94,8,1,18,0.00
2013-11-1,29,24,11,23,19,9,91,84,72,30.44,30.09,3,0,8,0.00
2013-11-2,48,25,8,23,9,3,91,60,16,30.55,30.10,4,0,9,0.14
2013-11-3,44,32,17,24,15,7,89,54,27,30.08,29.55,5,1,9,0.07
2013-11-4,37,22,4,21,13,1,90,71,37,29.95,29.77,3,0,7,0.00
2013-11-5,25,15,5,20,9,-1,87,77,62,30.46,29.91,6,1,10,0.00
2013-11-6,26,17,0,18,10,-4,86,75,65,30.70,30.47,5,1,10,0.00
2013-11-7,44,30,12,21,16,9,90,59,34,30.69,30.13,4,1,10,0.00
2013-11-8,46,36,22,18,14,8,77,44,29,30.13,29.77,10,1,18,0.01
2013-11-9,47,29,18,22,16,13,81,63,30,30.33,30.04,4,0,9,0.05
2013-11-10,47,29,19,20,17,14,82,63,29,30.39,30.27,4,0,9,0.01
2013-11-11,45,28,19,19,17,15,83,65,33,30.56,30.36,5,1,10,0.01
2013-11-12,48,28,18,19,14,7,85,63,19,30.67,30.56,3,0,5,0.00
2013-11-13,46,29,15,19,13,8,78,57,24,30.59,30.16,4,0,10,0.00
2013-11-14,40,28,16,24,15,2,89,61,23,30.16,29.84,4,0,9,0.00
2013-11-15,39,27,16,25,14,4,91,61,33,29.84,29.55,5,1,12,0.00
2013-11-16,33,26,21,23,18,13,91,74,48,29.56,29.39,5,0,16,0.00
2013-11-17,31,22,16,18,16,12,88,77,55,30.27,29.57,4,1,12,0.00
2013-11-18,43,22,7,19,11,4,89,69,25,30.45,30.27,4,0,7,0.02
2013-11-19,41,26,11,25,16,8,88,71,37,30.30,29.94,6,1,12,0.01
2013-11-20,37,29,26,25,22,17,90,74,46,29.94,29.76,4,0,8,0.00
2013-11-21,33,27,15,27,23,12,90,84,71,30.25,29.83,2,0,5,0.00
2013-11-22,32,21,15,23,16,12,89,81,67,30.54,30.26,5,1,11,0.00
2013-11-23,29,23,18,23,17,12,89,76,65,30.53,30.28,7,1,12,0.00
2013-11-24,28,24,16,25,21,13,93,89,80,30.27,30.00,2,0,8,0.00
2013-11-25,29,22,10,21,17,7,91,80,61,30.43,30.05,4,0,9,0.00
2013-11-26,31,19,8,16,12,5,91,75,48,30.55,30.43,8,1,16,0.00
2013-11-27,40,19,5,19,10,2,91,73,34,30.60,30.41,4,0,7,0.01
2013-11-28,42,24,12,16,12,8,87,65,25,30.44,30.21,3,1,5,0.01
2013-11-29,37,21,10,16,12,7,88,70,39,30.49,30.32,4,0,10,0.00
2013-11-30,35,17,7,14,7,4,90,70,30,30.52,30.39,4,0,10,0.00
2013-12-1,34,22,7,21,12,5,90,69,44,30.50,30.23,4,1,12,0.00